Regional Weather Roundup
Issued by NWS

Home | Current Version | Previous Version | Graphics & Text | Print | Product List | Glossary Off
Versions: 1 2 3 4 5 6 7 8 9 10 11 12 13 14 15 16 17 18 19 20 21 22 23 24 25 26 27 28 29 30 31 32 33 34 35 36 37 38 39 40 41 42 43 44 45 46 47 48 49 50

666
ASUS44 KJAN 210210
RWRMS

MISSISSIPPI HOURLY WEATHER ROUNDUP
NATIONAL WEATHER SERVICE JACKSON MS
900 PM CDT SAT SEP 20 2014

NOTE: "FAIR: INDICATES FEW OR NO CLOUDS BELOW 12,000 FEET WITH NO
SIGNIFICANT WEATHER AND/OR OBSTRUCTIONS TO VISIBILITY.

MSZ001>002-007>008-010>013-018>021-025>028-034>036-210300-
NORTHWEST MISSISSIPPI

CITY           SKY/WX    TMP DP  RH WIND       PRES   REMARKS
CLARKSDALE     FAIR      77  72  83 CALM      30.00R
CLEVELAND      MOCLDY    80  70  72 E6        29.98R
GREENWOOD      PTCLDY    75  69  81 E3        29.99R
GREENVILLE     MOCLDY    80  66  62 NE6       29.98R
GRENADA        FAIR      72  70  94 CALM      30.01R
OLIVE BRANCH   CLEAR     75  73  94 CALM      30.01R
OXFORD         FAIR      70  68  94 SE5       30.02S
TUNICA         MOCLDY    73  68  83 CALM      30.00R
$$

MSZ003>006-009-014>017-022>024-029>033-037>039-210300-
NORTHEAST MISSISSIPPI

CITY           SKY/WX    TMP DP  RH WIND       PRES   REMARKS
COLUMBUS AFB   PTCLDY    73  67  82 NW3       30.01R
CORINTH          N/A     72  68  88 CALM      30.02R
GOLDN TRIANGLE PTCLDY    75  64  69 CALM      30.01R
STARKVILLE     FAIR      70  66  88 CALM      30.01R
TUPELO         MOCLDY    75  68  78 CALM      30.01R
$$

MSZ040-058-210300-
CENTRAL MISSISSIPPI

CITY           SKY/WX    TMP DP  RH WIND       PRES   REMARKS
JACKSON INTL   CLEAR     74  69  85 CALM      29.99R
JACKSON HAWKNS CLEAR     77  67  71 CALM      30.00R
MERIDIAN KEY   CLEAR     75  65  70 SE8       30.00R
MERIDIAN NAS   CLEAR     75  64  68 SE5       30.01R
RAYMOND        FAIR      72  66  83 CALM      30.00R
VICKSBURG      CLEAR     71  69  93 CALM      29.98R
$$

MSZ059>079-210300-
SOUTH MISSISSIPPI

CITY           SKY/WX    TMP DP  RH WIND       PRES   REMARKS
BROOKHAVEN     FAIR      72  68  88 CALM      30.01R
COLUMBIA       FAIR      72  70  94 CALM      29.97R
HATTIESBURG    CLEAR     76  67  73 E5        30.00R
MCCOMB         CLEAR     78  68  71 CALM      29.99R
NATCHEZ        CLEAR     73  70  88 CALM      29.99R
PINE BELT      CLEAR    N/A N/A N/A E5        30.00R
$$

MSZ080>082-210300-
COASTAL MISSISSIPPI

CITY           SKY/WX    TMP DP  RH WIND       PRES   REMARKS
BILOXI         CLEAR     79  69  71 E7        29.98R
PASCAGOULA     CLEAR     71  68  90 NE3       29.99R
GULFPORT       CLEAR     78  68  71 E7        29.97R
$$



USA.gov is the U.S. government's official web portal to all federal, state and local government web resources and services.